Tracking 28790 objects as of 19-Apr-2024
HD Live streaming from Space Station
objects crossing your sky now

IRIDIUM 161

Track IRIDIUM 161 now!
10-day predictions
IRIDIUM 161 is classified as:


NORAD ID: 43478
Int'l Code: 2018-047C
Perigee: 753.1 km
Apogee: 756.6 km
Inclination: 86.4 °
Period: 99.8 minutes
Semi major axis: 7125 km
RCS: Unknown
Launch date: May 22, 2018
Source: United States (US)
Launch site: AIR FORCE WESTERN TEST RANGE (AFWTR)
Your satellite tracking list
Your tracking list is empty




NASA's NSSDC Master Catalog

Two Line Element Set (TLE):
1 43478U 18047C   24109.90672158  .00000819  00000-0  23742-3 0  9999
2 43478  86.4492  58.3167 0002454  87.5673 272.5808 14.43280952311298
Source of the keplerian elements: AFSPC